owner,sensor,date,latitude,longitude,vertical_datum,sea_water_practical_salinity,qcFlag 
DISL,ioos:station:DISL:BSCA:1,2013-04-01T00:00:00Z,30.3288,-87.8293,2.016,6.57,1111122 
DISL,ioos:station:DISL:BSCA:1,2013-04-01T00:30:00Z,30.3288,-87.8293,1.969,6.59,1111122 
DISL,ioos:station:DISL:BSCA:1,2013-04-01T01:00:00Z,30.3288,-87.8293,1.948,6.44,1111122 
DISL,ioos:station:DISL:BSCA:1,2013-04-01T01:30:00Z,30.3288,-87.8293,1.948,6.42,1111122 
DISL,ioos:station:DISL:BSCA:1,2013-04-01T02:00:00Z,30.3288,-87.8293,1.904,6.49,1111122 
DISL,ioos:station:DISL:BSCA:1,2013-04-01T02:30:00Z,30.3288,-87.8293,1.895,6.66,1111122 
DISL,ioos:station:DISL:BSCA:1,2013-04-01T03:00:00Z,30.3288,-87.8293,1.818,6.52,1111122 
DISL,ioos:station:DISL:BSCA:1,2013-04-01T03:30:00Z,30.3288,-87.8293,1.784,5.83,1111122 
DISL,ioos:station:DISL:BSCA:1,2013-04-01T04:00:00Z,30.3288,-87.8293,1.74,5.98,1111122 
DISL,ioos:station:DISL:BSCA:1,2013-04-01T04:30:00Z,30.3288,-87.8293,1.728,5.93,1111122 
DISL,ioos:station:DISL:BSCA:1,2013-04-01T05:00:00Z,30.3288,-87.8293,1.729,5.28,1111122 
DISL,ioos:station:DISL:BSCA:1,2013-04-01T05:30:00Z,30.3288,-87.8293,1.748,5.33,1111122 
DISL,ioos:station:DISL:BSCA:1,2013-04-01T06:00:00Z,30.3288,-87.8293,1.755,5.98,1111122 
DISL,ioos:station:DISL:BSCA:1,2013-04-01T06:30:00Z,30.3288,-87.8293,1.765,5.49,1111122 
DISL,ioos:station:DISL:BSCA:1,2013-04-01T07:00:00Z,30.3288,-87.8293,1.785,5.32,1111122 
DISL,ioos:station:DISL:BSCA:1,2013-04-01T07:30:00Z,30.3288,-87.8293,1.79,5.82,1111122 
DISL,ioos:station:DISL:BSCA:1,2013-04-01T08:00:00Z,30.3288,-87.8293,1.804,6.36,1111122 
DISL,ioos:station:DISL:BSCA:1,2013-04-01T08:30:00Z,30.3288,-87.8293,1.795,5.93,1111122 
DISL,ioos:station:DISL:BSCA:1,2013-04-01T09:00:00Z,30.3288,-87.8293,1.781,5.86,1111122 
DISL,ioos:station:DISL:BSCA:1,2013-04-01T09:30:00Z,30.3288,-87.8293,1.785,6.11,1111122 
DISL,ioos:station:DISL:BSCA:1,2013-04-01T10:00:00Z,30.3288,-87.8293,1.797,5.47,1111122 
DISL,ioos:station:DISL:BSCA:1,2013-04-01T10:30:00Z,30.3288,-87.8293,1.84,5.15,1111122 
DISL,ioos:station:DISL:BSCA:1,2013-04-01T11:00:00Z,30.3288,-87.8293,1.868,6.19,1111122 
DISL,ioos:station:DISL:BSCA:1,2013-04-01T11:30:00Z,30.3288,-87.8293,1.898,6.59,1111122 
DISL,ioos:station:DISL:BSCA:1,2013-04-01T12:00:00Z,30.3288,-87.8293,1.94,6.67,1111122 
DISL,ioos:station:DISL:BSCA:1,2013-04-01T12:30:00Z,30.3288,-87.8293,1.96,6.77,1111122 
DISL,ioos:station:DISL:BSCA:1,2013-04-01T13:00:00Z,30.3288,-87.8293,1.98,6.79,1111122 
DISL,ioos:station:DISL:BSCA:1,2013-04-01T13:30:00Z,30.3288,-87.8293,2.017,6.84,1111122 
DISL,ioos:station:DISL:BSCA:1,2013-04-01T14:00:00Z,30.3288,-87.8293,2.055,6.84,1111122 
DISL,ioos:station:DISL:BSCA:1,2013-04-01T14:30:00Z,30.3288,-87.8293,2.095,7.0,1111122 
DISL,ioos:station:DISL:BSCA:1,2013-04-01T15:00:00Z,30.3288,-87.8293,2.135,7.12,1111122 
DISL,ioos:station:DISL:BSCA:1,2013-04-01T15:30:00Z,30.3288,-87.8293,2.152,6.87,1111122 
DISL,ioos:station:DISL:BSCA:1,2013-04-01T16:00:00Z,30.3288,-87.8293,2.16,6.51,1111122 
DISL,ioos:station:DISL:BSCA:1,2013-04-01T16:30:00Z,30.3288,-87.8293,2.165,6.91,1111122 
DISL,ioos:station:DISL:BSCA:1,2013-04-01T17:00:00Z,30.3288,-87.8293,2.17,6.96,1111122 
DISL,ioos:station:DISL:BSCA:1,2013-04-01T17:30:00Z,30.3288,-87.8293,2.187,6.97,1111122 
DISL,ioos:station:DISL:BSCA:1,2013-04-01T18:00:00Z,30.3288,-87.8293,2.149,9.09,1111122 
DISL,ioos:station:DISL:BSCA:1,2013-04-01T18:30:00Z,30.3288,-87.8293,2.149,8.96,1111122 
DISL,ioos:station:DISL:BSCA:1,2013-04-01T19:00:00Z,30.3288,-87.8293,2.168,8.94,1111122 
DISL,ioos:station:DISL:BSCA:1,2013-04-01T19:30:00Z,30.3288,-87.8293,2.169,8.87,1111122 
DISL,ioos:station:DISL:BSCA:1,2013-04-01T20:00:00Z,30.3288,-87.8293,2.158,8.75,1111122 
DISL,ioos:station:DISL:BSCA:1,2013-04-01T20:30:00Z,30.3288,-87.8293,2.137,8.59,1111122 
DISL,ioos:station:DISL:BSCA:1,2013-04-01T21:00:00Z,30.3288,-87.8293,2.11,8.3,1111122 
DISL,ioos:station:DISL:BSCA:1,2013-04-01T21:30:00Z,30.3288,-87.8293,2.083,8.27,1111122 
DISL,ioos:station:DISL:BSCA:1,2013-04-01T22:00:00Z,30.3288,-87.8293,2.048,8.21,1111122 
DISL,ioos:station:DISL:BSCA:1,2013-04-01T22:30:00Z,30.3288,-87.8293,2.025,8.29,1111122 
DISL,ioos:station:DISL:BSCA:1,2013-04-01T23:00:00Z,30.3288,-87.8293,1.999,8.37,1111122 
DISL,ioos:station:DISL:BSCA:1,2013-04-01T23:30:00Z,30.3288,-87.8293,1.974,8.38,1111122 
DISL,ioos:station:DISL:BSCA:1,2013-04-02T00:00:00Z,30.3288,-87.8293,1.963,8.25,1111122 
DISL,ioos:station:DISL:BSCA:1,2013-04-02T00:30:00Z,30.3288,-87.8293,1.939,8.14,1111122 
DISL,ioos:station:DISL:BSCA:1,2013-04-02T01:00:00Z,30.3288,-87.8293,1.917,8.21,1111122 
DISL,ioos:station:DISL:BSCA:1,2013-04-02T01:30:00Z,30.3288,-87.8293,1.879,8.2,1111122 
DISL,ioos:station:DISL:BSCA:1,2013-04-02T02:00:00Z,30.3288,-87.8293,1.859,8.18,1111122 
DISL,ioos:station:DISL:BSCA:1,2013-04-02T02:30:00Z,30.3288,-87.8293,1.802,8.19,1111122 
DISL,ioos:station:DISL:BSCA:1,2013-04-02T03:00:00Z,30.3288,-87.8293,1.785,8.15,1111122 
DISL,ioos:station:DISL:BSCA:1,2013-04-02T03:30:00Z,30.3288,-87.8293,1.74,8.09,1111122 
DISL,ioos:station:DISL:BSCA:1,2013-04-02T04:00:00Z,30.3288,-87.8293,1.714,7.99,1111122 
DISL,ioos:station:DISL:BSCA:1,2013-04-02T04:30:00Z,30.3288,-87.8293,1.689,8.06,1111122 
DISL,ioos:station:DISL:BSCA:1,2013-04-02T05:00:00Z,30.3288,-87.8293,1.677,7.92,1111122 
DISL,ioos:station:DISL:BSCA:1,2013-04-02T05:30:00Z,30.3288,-87.8293,1.666,7.91,1111122 
DISL,ioos:station:DISL:BSCA:1,2013-04-02T06:00:00Z,30.3288,-87.8293,1.652,8.0,1111122 
DISL,ioos:station:DISL:BSCA:1,2013-04-02T06:30:00Z,30.3288,-87.8293,1.634,7.85,1111122 
DISL,ioos:station:DISL:BSCA:1,2013-04-02T07:00:00Z,30.3288,-87.8293,1.618,7.86,1111122 
DISL,ioos:station:DISL:BSCA:1,2013-04-02T07:30:00Z,30.3288,-87.8293,1.604,7.98,1111122 
DISL,ioos:station:DISL:BSCA:1,2013-04-02T08:00:00Z,30.3288,-87.8293,1.597,7.98,1111122 
DISL,ioos:station:DISL:BSCA:1,2013-04-02T08:30:00Z,30.3288,-87.8293,1.595,8.02,1111122 
DISL,ioos:station:DISL:BSCA:1,2013-04-02T09:00:00Z,30.3288,-87.8293,1.603,8.03,1111122 
DISL,ioos:station:DISL:BSCA:1,2013-04-02T09:30:00Z,30.3288,-87.8293,1.604,8.06,1111122 
DISL,ioos:station:DISL:BSCA:1,2013-04-02T10:00:00Z,30.3288,-87.8293,1.619,8.1,1111122 
DISL,ioos:station:DISL:BSCA:1,2013-04-02T10:30:00Z,30.3288,-87.8293,1.633,8.09,1111122 
DISL,ioos:station:DISL:BSCA:1,2013-04-02T11:00:00Z,30.3288,-87.8293,1.643,8.1,1111122 
DISL,ioos:station:DISL:BSCA:1,2013-04-02T11:30:00Z,30.3288,-87.8293,1.671,7.93,1111122 
DISL,ioos:station:DISL:BSCA:1,2013-04-02T12:00:00Z,30.3288,-87.8293,1.7,7.91,1111122 
DISL,ioos:station:DISL:BSCA:1,2013-04-02T12:30:00Z,30.3288,-87.8293,1.733,7.97,1111122 
DISL,ioos:station:DISL:BSCA:1,2013-04-02T13:00:00Z,30.3288,-87.8293,1.768,7.95,1111122 
DISL,ioos:station:DISL:BSCA:1,2013-04-02T13:30:00Z,30.3288,-87.8293,1.8,8.01,1111122 
DISL,ioos:station:DISL:BSCA:1,2013-04-02T14:00:00Z,30.3288,-87.8293,1.838,7.98,1111122 
DISL,ioos:station:DISL:BSCA:1,2013-04-02T14:30:00Z,30.3288,-87.8293,1.868,8.26,1111122 
DISL,ioos:station:DISL:BSCA:1,2013-04-02T15:00:00Z,30.3288,-87.8293,1.891,8.21,1111122 
DISL,ioos:station:DISL:BSCA:1,2013-04-02T15:30:00Z,30.3288,-87.8293,1.913,8.08,1111122 
DISL,ioos:station:DISL:BSCA:1,2013-04-02T16:00:00Z,30.3288,-87.8293,1.922,8.49,1111122 
DISL,ioos:station:DISL:BSCA:1,2013-04-02T16:30:00Z,30.3288,-87.8293,1.956,8.39,1111122 
DISL,ioos:station:DISL:BSCA:1,2013-04-02T17:00:00Z,30.3288,-87.8293,1.983,8.21,1111122 
DISL,ioos:station:DISL:BSCA:1,2013-04-02T17:30:00Z,30.3288,-87.8293,2.006,8.15,1111122 
DISL,ioos:station:DISL:BSCA:1,2013-04-02T18:00:00Z,30.3288,-87.8293,2.04,8.51,1111122 
DISL,ioos:station:DISL:BSCA:1,2013-04-02T18:30:00Z,30.3288,-87.8293,2.069,8.4,1111122 
DISL,ioos:station:DISL:BSCA:1,2013-04-02T19:00:00Z,30.3288,-87.8293,2.104,8.86,1111122 
DISL,ioos:station:DISL:BSCA:1,2013-04-02T19:30:00Z,30.3288,-87.8293,2.114,8.66,1111122 
DISL,ioos:station:DISL:BSCA:1,2013-04-02T20:00:00Z,30.3288,-87.8293,2.139,8.87,1111122 
DISL,ioos:station:DISL:BSCA:1,2013-04-02T20:30:00Z,30.3288,-87.8293,2.142,8.85,1111122 
DISL,ioos:station:DISL:BSCA:1,2013-04-02T21:00:00Z,30.3288,-87.8293,2.145,8.48,1111122 
DISL,ioos:station:DISL:BSCA:1,2013-04-02T21:30:00Z,30.3288,-87.8293,2.135,8.56,1111122 
DISL,ioos:station:DISL:BSCA:1,2013-04-02T22:00:00Z,30.3288,-87.8293,2.134,8.36,1111122 
DISL,ioos:station:DISL:BSCA:1,2013-04-02T22:30:00Z,30.3288,-87.8293,2.11,8.1,1111122 
DISL,ioos:station:DISL:BSCA:1,2013-04-02T23:00:00Z,30.3288,-87.8293,2.086,8.07,1111122 
DISL,ioos:station:DISL:BSCA:1,2013-04-02T23:30:00Z,30.3288,-87.8293,2.07,8.12,1111122 
DISL,ioos:station:DISL:BSCA:1,2013-04-03T00:00:00Z,30.3288,-87.8293,2.054,7.91,1111122 
DISL,ioos:station:DISL:BSCA:1,2013-04-03T00:30:00Z,30.3288,-87.8293,2.012,7.95,1111122 
DISL,ioos:station:DISL:BSCA:1,2013-04-03T01:00:00Z,30.3288,-87.8293,1.975,7.94,1111122 
DISL,ioos:station:DISL:BSCA:1,2013-04-03T01:30:00Z,30.3288,-87.8293,1.939,7.94,1111122 
DISL,ioos:station:DISL:BSCA:1,2013-04-03T02:00:00Z,30.3288,-87.8293,1.913,7.95,1111122 
DISL,ioos:station:DISL:BSCA:1,2013-04-03T02:30:00Z,30.3288,-87.8293,1.887,7.95,1111122 
DISL,ioos:station:DISL:BSCA:1,2013-04-03T03:00:00Z,30.3288,-87.8293,1.859,7.95,1111122 
DISL,ioos:station:DISL:BSCA:1,2013-04-03T03:30:00Z,30.3288,-87.8293,1.838,7.97,1111122 
DISL,ioos:station:DISL:BSCA:1,2013-04-03T04:00:00Z,30.3288,-87.8293,1.797,7.96,1111122 
DISL,ioos:station:DISL:BSCA:1,2013-04-03T04:30:00Z,30.3288,-87.8293,1.767,7.97,1111122 
DISL,ioos:station:DISL:BSCA:1,2013-04-03T05:00:00Z,30.3288,-87.8293,1.729,7.98,1111122 
DISL,ioos:station:DISL:BSCA:1,2013-04-03T05:30:00Z,30.3288,-87.8293,1.708,7.98,1111122 
DISL,ioos:station:DISL:BSCA:1,2013-04-03T06:00:00Z,30.3288,-87.8293,1.709,7.99,1111122 
DISL,ioos:station:DISL:BSCA:1,2013-04-03T06:30:00Z,30.3288,-87.8293,1.666,7.99,1111122 
DISL,ioos:station:DISL:BSCA:1,2013-04-03T07:00:00Z,30.3288,-87.8293,1.645,8.0,1111122 
DISL,ioos:station:DISL:BSCA:1,2013-04-03T07:30:00Z,30.3288,-87.8293,1.639,8.03,1111122 
DISL,ioos:station:DISL:BSCA:1,2013-04-03T08:00:00Z,30.3288,-87.8293,1.635,8.02,1111122 
DISL,ioos:station:DISL:BSCA:1,2013-04-03T08:30:00Z,30.3288,-87.8293,1.618,8.08,1111122 
DISL,ioos:station:DISL:BSCA:1,2013-04-03T09:00:00Z,30.3288,-87.8293,1.628,8.06,1111122 
DISL,ioos:station:DISL:BSCA:1,2013-04-03T09:30:00Z,30.3288,-87.8293,1.64,8.03,1111122 
DISL,ioos:station:DISL:BSCA:1,2013-04-03T10:00:00Z,30.3288,-87.8293,1.662,8.06,1111122 
DISL,ioos:station:DISL:BSCA:1,2013-04-03T10:30:00Z,30.3288,-87.8293,1.681,8.17,1111122 
DISL,ioos:station:DISL:BSCA:1,2013-04-03T11:00:00Z,30.3288,-87.8293,1.701,8.13,1111122 
DISL,ioos:station:DISL:BSCA:1,2013-04-03T11:30:00Z,30.3288,-87.8293,1.72,8.1,1111122 
DISL,ioos:station:DISL:BSCA:1,2013-04-03T12:00:00Z,30.3288,-87.8293,1.733,8.08,1111122 
DISL,ioos:station:DISL:BSCA:1,2013-04-03T12:30:00Z,30.3288,-87.8293,1.753,8.17,1111122 
DISL,ioos:station:DISL:BSCA:1,2013-04-03T13:00:00Z,30.3288,-87.8293,1.768,8.23,1111122 
DISL,ioos:station:DISL:BSCA:1,2013-04-03T13:30:00Z,30.3288,-87.8293,1.791,8.77,1111122 
DISL,ioos:station:DISL:BSCA:1,2013-04-03T14:00:00Z,30.3288,-87.8293,1.761,8.36,1111122 
DISL,ioos:station:DISL:BSCA:1,2013-04-03T14:30:00Z,30.3288,-87.8293,1.748,8.43,1111122 
DISL,ioos:station:DISL:BSCA:1,2013-04-03T15:00:00Z,30.3288,-87.8293,1.758,8.7,1111122 
DISL,ioos:station:DISL:BSCA:1,2013-04-03T15:30:00Z,30.3288,-87.8293,1.768,8.79,1111122 
DISL,ioos:station:DISL:BSCA:1,2013-04-03T16:00:00Z,30.3288,-87.8293,1.813,8.97,1111122 
DISL,ioos:station:DISL:BSCA:1,2013-04-03T16:30:00Z,30.3288,-87.8293,1.855,9.13,1111122 
DISL,ioos:station:DISL:BSCA:1,2013-04-03T17:00:00Z,30.3288,-87.8293,1.885,12.92,1111122 
DISL,ioos:station:DISL:BSCA:1,2013-04-03T17:30:00Z,30.3288,-87.8293,1.938,11.32,1111122 
DISL,ioos:station:DISL:BSCA:1,2013-04-03T18:00:00Z,30.3288,-87.8293,1.973,9.53,1111122 
DISL,ioos:station:DISL:BSCA:1,2013-04-03T18:30:00Z,30.3288,-87.8293,1.992,9.43,1111122 
DISL,ioos:station:DISL:BSCA:1,2013-04-03T19:00:00Z,30.3288,-87.8293,1.93,9.92,1111122 
DISL,ioos:station:DISL:BSCA:1,2013-04-03T19:30:00Z,30.3288,-87.8293,1.768,10.62,1111122 
DISL,ioos:station:DISL:BSCA:1,2013-04-03T20:00:00Z,30.3288,-87.8293,1.605,11.0,1111122 
DISL,ioos:station:DISL:BSCA:1,2013-04-03T20:30:00Z,30.3288,-87.8293,1.57,11.22,1111122 
DISL,ioos:station:DISL:BSCA:1,2013-04-03T21:00:00Z,30.3288,-87.8293,1.7,10.37,1111122 
DISL,ioos:station:DISL:BSCA:1,2013-04-03T21:30:00Z,30.3288,-87.8293,1.939,10.84,1111122 
DISL,ioos:station:DISL:BSCA:1,2013-04-03T22:00:00Z,30.3288,-87.8293,2.31,10.49,1111122 
DISL,ioos:station:DISL:BSCA:1,2013-04-03T22:30:00Z,30.3288,-87.8293,2.427,10.19,1111122 
DISL,ioos:station:DISL:BSCA:1,2013-04-03T23:00:00Z,30.3288,-87.8293,2.46,10.3,1111122 
DISL,ioos:station:DISL:BSCA:1,2013-04-03T23:30:00Z,30.3288,-87.8293,2.379,10.25,1111122 
DISL,ioos:station:DISL:BSCA:1,2013-04-04T00:00:00Z,30.3288,-87.8293,2.302,10.5,1111122 
DISL,ioos:station:DISL:BSCA:1,2013-04-04T00:30:00Z,30.3288,-87.8293,2.224,10.81,1111122 
DISL,ioos:station:DISL:BSCA:1,2013-04-04T01:00:00Z,30.3288,-87.8293,2.137,11.13,1111122 
DISL,ioos:station:DISL:BSCA:1,2013-04-04T01:30:00Z,30.3288,-87.8293,2.13,11.14,1111122 
DISL,ioos:station:DISL:BSCA:1,2013-04-04T02:00:00Z,30.3288,-87.8293,2.138,11.38,1111122 
DISL,ioos:station:DISL:BSCA:1,2013-04-04T02:30:00Z,30.3288,-87.8293,2.152,11.48,1111122 
DISL,ioos:station:DISL:BSCA:1,2013-04-04T03:00:00Z,30.3288,-87.8293,2.149,11.27,1111122 
DISL,ioos:station:DISL:BSCA:1,2013-04-04T03:30:00Z,30.3288,-87.8293,2.098,12.28,1111122 
DISL,ioos:station:DISL:BSCA:1,2013-04-04T04:00:00Z,30.3288,-87.8293,2.01,11.1,1111122 
DISL,ioos:station:DISL:BSCA:1,2013-04-04T04:30:00Z,30.3288,-87.8293,1.938,10.96,1111122 
DISL,ioos:station:DISL:BSCA:1,2013-04-04T05:00:00Z,30.3288,-87.8293,1.883,11.08,1111122 
DISL,ioos:station:DISL:BSCA:1,2013-04-04T05:30:00Z,30.3288,-87.8293,1.836,11.14,1111122 
DISL,ioos:station:DISL:BSCA:1,2013-04-04T06:00:00Z,30.3288,-87.8293,1.849,11.17,1111122 
DISL,ioos:station:DISL:BSCA:1,2013-04-04T06:30:00Z,30.3288,-87.8293,1.861,11.08,1111122 
DISL,ioos:station:DISL:BSCA:1,2013-04-04T07:00:00Z,30.3288,-87.8293,1.882,11.28,1111122 
DISL,ioos:station:DISL:BSCA:1,2013-04-04T07:30:00Z,30.3288,-87.8293,1.891,11.64,1111122 
DISL,ioos:station:DISL:BSCA:1,2013-04-04T08:00:00Z,30.3288,-87.8293,1.846,11.69,1111122 
DISL,ioos:station:DISL:BSCA:1,2013-04-04T08:30:00Z,30.3288,-87.8293,1.816,11.5,1111122 
DISL,ioos:station:DISL:BSCA:1,2013-04-04T09:00:00Z,30.3288,-87.8293,1.783,11.46,1111122 
DISL,ioos:station:DISL:BSCA:1,2013-04-04T09:30:00Z,30.3288,-87.8293,1.777,11.36,1111122 
DISL,ioos:station:DISL:BSCA:1,2013-04-04T10:00:00Z,30.3288,-87.8293,1.771,11.53,1111122 
DISL,ioos:station:DISL:BSCA:1,2013-04-04T10:30:00Z,30.3288,-87.8293,1.753,11.33,1111122 
DISL,ioos:station:DISL:BSCA:1,2013-04-04T11:00:00Z,30.3288,-87.8293,1.753,11.48,1111122 
DISL,ioos:station:DISL:BSCA:1,2013-04-04T11:30:00Z,30.3288,-87.8293,1.759,11.4,1111122 
DISL,ioos:station:DISL:BSCA:1,2013-04-04T12:00:00Z,30.3288,-87.8293,1.81,11.53,1111122 
DISL,ioos:station:DISL:BSCA:1,2013-04-04T12:30:00Z,30.3288,-87.8293,1.857,11.95,1111122 
DISL,ioos:station:DISL:BSCA:1,2013-04-04T13:00:00Z,30.3288,-87.8293,1.901,12.08,1111122 
DISL,ioos:station:DISL:BSCA:1,2013-04-04T13:30:00Z,30.3288,-87.8293,1.928,12.02,1111122 
DISL,ioos:station:DISL:BSCA:1,2013-04-04T14:00:00Z,30.3288,-87.8293,1.911,12.17,1111122 
DISL,ioos:station:DISL:BSCA:1,2013-04-04T14:30:00Z,30.3288,-87.8293,1.936,11.99,1111122 
DISL,ioos:station:DISL:BSCA:1,2013-04-04T15:00:00Z,30.3288,-87.8293,1.932,11.92,1111122 
DISL,ioos:station:DISL:BSCA:1,2013-04-04T15:30:00Z,30.3288,-87.8293,1.946,11.84,1111122 
DISL,ioos:station:DISL:BSCA:1,2013-04-04T16:00:00Z,30.3288,-87.8293,1.954,11.7,1111122 
DISL,ioos:station:DISL:BSCA:1,2013-04-04T16:30:00Z,30.3288,-87.8293,1.996,11.65,1111122 
DISL,ioos:station:DISL:BSCA:1,2013-04-04T17:00:00Z,30.3288,-87.8293,2.015,11.78,1111122 
DISL,ioos:station:DISL:BSCA:1,2013-04-04T17:30:00Z,30.3288,-87.8293,2.036,11.59,1111122 
DISL,ioos:station:DISL:BSCA:1,2013-04-04T18:00:00Z,30.3288,-87.8293,2.062,11.49,1111122 
DISL,ioos:station:DISL:BSCA:1,2013-04-04T18:30:00Z,30.3288,-87.8293,2.098,11.55,1111122 
DISL,ioos:station:DISL:BSCA:1,2013-04-04T19:00:00Z,30.3288,-87.8293,2.135,11.7,1111122 
DISL,ioos:station:DISL:BSCA:1,2013-04-04T19:30:00Z,30.3288,-87.8293,2.136,11.55,1111122 
DISL,ioos:station:DISL:BSCA:1,2013-04-04T20:00:00Z,30.3288,-87.8293,2.134,11.38,1111122 
DISL,ioos:station:DISL:BSCA:1,2013-04-04T20:30:00Z,30.3288,-87.8293,2.12,11.18,1111122 
DISL,ioos:station:DISL:BSCA:1,2013-04-04T21:00:00Z,30.3288,-87.8293,2.148,11.25,1111122 
DISL,ioos:station:DISL:BSCA:1,2013-04-04T21:30:00Z,30.3288,-87.8293,2.238,11.13,1111122 
DISL,ioos:station:DISL:BSCA:1,2013-04-04T22:00:00Z,30.3288,-87.8293,2.287,11.27,1111122 
DISL,ioos:station:DISL:BSCA:1,2013-04-04T22:30:00Z,30.3288,-87.8293,2.225,11.27,1111122 
DISL,ioos:station:DISL:BSCA:1,2013-04-04T23:00:00Z,30.3288,-87.8293,2.208,11.23,1111122 
DISL,ioos:station:DISL:BSCA:1,2013-04-04T23:30:00Z,30.3288,-87.8293,2.198,11.24,1111122 
DISL,ioos:station:DISL:BSCA:1,2013-04-05T00:00:00Z,30.3288,-87.8293,2.198,11.25,1111122 
DISL,ioos:station:DISL:BSCA:1,2013-04-05T00:30:00Z,30.3288,-87.8293,2.194,11.25,1111122 
DISL,ioos:station:DISL:BSCA:1,2013-04-05T01:00:00Z,30.3288,-87.8293,2.173,11.26,1111122 
DISL,ioos:station:DISL:BSCA:1,2013-04-05T01:30:00Z,30.3288,-87.8293,2.166,11.31,1111122 
DISL,ioos:station:DISL:BSCA:1,2013-04-05T02:00:00Z,30.3288,-87.8293,2.183,11.38,1111122 
DISL,ioos:station:DISL:BSCA:1,2013-04-05T02:30:00Z,30.3288,-87.8293,2.196,11.36,1111122 
DISL,ioos:station:DISL:BSCA:1,2013-04-05T03:00:00Z,30.3288,-87.8293,2.127,11.34,1111122 
DISL,ioos:station:DISL:BSCA:1,2013-04-05T03:30:00Z,30.3288,-87.8293,2.029,11.26,1111122 
DISL,ioos:station:DISL:BSCA:1,2013-04-05T04:00:00Z,30.3288,-87.8293,2.081,11.27,1111122 
DISL,ioos:station:DISL:BSCA:1,2013-04-05T04:30:00Z,30.3288,-87.8293,1.973,11.28,1111122 
DISL,ioos:station:DISL:BSCA:1,2013-04-05T05:00:00Z,30.3288,-87.8293,1.958,11.14,1111122 
DISL,ioos:station:DISL:BSCA:1,2013-04-05T05:30:00Z,30.3288,-87.8293,1.904,11.11,1111122 
DISL,ioos:station:DISL:BSCA:1,2013-04-05T06:00:00Z,30.3288,-87.8293,1.871,11.12,1111122 
DISL,ioos:station:DISL:BSCA:1,2013-04-05T06:30:00Z,30.3288,-87.8293,1.862,11.06,1111122 
DISL,ioos:station:DISL:BSCA:1,2013-04-05T07:00:00Z,30.3288,-87.8293,1.86,11.09,1111122 
DISL,ioos:station:DISL:BSCA:1,2013-04-05T07:30:00Z,30.3288,-87.8293,1.852,11.09,1111122 
DISL,ioos:station:DISL:BSCA:1,2013-04-05T08:00:00Z,30.3288,-87.8293,1.823,10.86,1111122 
DISL,ioos:station:DISL:BSCA:1,2013-04-05T08:30:00Z,30.3288,-87.8293,1.784,10.67,1111122 
DISL,ioos:station:DISL:BSCA:1,2013-04-05T09:00:00Z,30.3288,-87.8293,1.773,10.6,1111122 
DISL,ioos:station:DISL:BSCA:1,2013-04-05T09:30:00Z,30.3288,-87.8293,1.736,10.54,1111122 
DISL,ioos:station:DISL:BSCA:1,2013-04-05T10:00:00Z,30.3288,-87.8293,1.745,10.54,1111122 
DISL,ioos:station:DISL:BSCA:1,2013-04-05T10:30:00Z,30.3288,-87.8293,1.775,10.58,1111122 
DISL,ioos:station:DISL:BSCA:1,2013-04-05T11:00:00Z,30.3288,-87.8293,1.684,10.63,1111122 
DISL,ioos:station:DISL:BSCA:1,2013-04-05T11:30:00Z,30.3288,-87.8293,1.746,10.55,1111122 
DISL,ioos:station:DISL:BSCA:1,2013-04-05T12:00:00Z,30.3288,-87.8293,1.725,10.54,1111122 
DISL,ioos:station:DISL:BSCA:1,2013-04-05T12:30:00Z,30.3288,-87.8293,1.699,10.54,1111122 
DISL,ioos:station:DISL:BSCA:1,2013-04-05T13:00:00Z,30.3288,-87.8293,1.67,10.61,1111122 
DISL,ioos:station:DISL:BSCA:1,2013-04-05T13:30:00Z,30.3288,-87.8293,1.676,10.64,1111122 
DISL,ioos:station:DISL:BSCA:1,2013-04-05T14:00:00Z,30.3288,-87.8293,1.694,10.64,1111122 
DISL,ioos:station:DISL:BSCA:1,2013-04-05T14:30:00Z,30.3288,-87.8293,1.706,10.65,1111122 
DISL,ioos:station:DISL:BSCA:1,2013-04-05T15:00:00Z,30.3288,-87.8293,1.713,10.66,1111122 
DISL,ioos:station:DISL:BSCA:1,2013-04-05T15:30:00Z,30.3288,-87.8293,1.731,10.67,1111122 
DISL,ioos:station:DISL:BSCA:1,2013-04-05T16:00:00Z,30.3288,-87.8293,1.759,10.74,1111122 
DISL,ioos:station:DISL:BSCA:1,2013-04-05T16:30:00Z,30.3288,-87.8293,1.76,10.83,1111122 
DISL,ioos:station:DISL:BSCA:1,2013-04-05T17:00:00Z,30.3288,-87.8293,1.755,10.91,1111122 
DISL,ioos:station:DISL:BSCA:1,2013-04-05T17:30:00Z,30.3288,-87.8293,1.766,11.14,1111122 
DISL,ioos:station:DISL:BSCA:1,2013-04-05T18:00:00Z,30.3288,-87.8293,1.763,10.95,1111122 
DISL,ioos:station:DISL:BSCA:1,2013-04-05T18:30:00Z,30.3288,-87.8293,1.75,10.89,1111122 
DISL,ioos:station:DISL:BSCA:1,2013-04-05T19:00:00Z,30.3288,-87.8293,1.741,10.94,1111122 
DISL,ioos:station:DISL:BSCA:1,2013-04-05T19:30:00Z,30.3288,-87.8293,1.76,10.87,1111122 
DISL,ioos:station:DISL:BSCA:1,2013-04-05T20:00:00Z,30.3288,-87.8293,1.788,9.84,1111122 
DISL,ioos:station:DISL:BSCA:1,2013-04-05T20:30:00Z,30.3288,-87.8293,1.805,10.04,1111122 
DISL,ioos:station:DISL:BSCA:1,2013-04-05T21:00:00Z,30.3288,-87.8293,1.797,9.84,1111122 
DISL,ioos:station:DISL:BSCA:1,2013-04-05T21:30:00Z,30.3288,-87.8293,1.822,9.84,1111122 
DISL,ioos:station:DISL:BSCA:1,2013-04-05T22:00:00Z,30.3288,-87.8293,1.831,9.71,1111122 
DISL,ioos:station:DISL:BSCA:1,2013-04-05T22:30:00Z,30.3288,-87.8293,1.843,9.45,1111122 
DISL,ioos:station:DISL:BSCA:1,2013-04-05T23:00:00Z,30.3288,-87.8293,1.862,9.18,1111122 
DISL,ioos:station:DISL:BSCA:1,2013-04-05T23:30:00Z,30.3288,-87.8293,1.879,8.98,1111122 
DISL,ioos:station:DISL:BSCA:1,2013-04-06T00:00:00Z,30.3288,-87.8293,1.88,9.58,1111122 
DISL,ioos:station:DISL:BSCA:1,2013-04-06T00:30:00Z,30.3288,-87.8293,1.883,9.84,1111122 
DISL,ioos:station:DISL:BSCA:1,2013-04-06T01:00:00Z,30.3288,-87.8293,1.882,9.82,1111122 
DISL,ioos:station:DISL:BSCA:1,2013-04-06T01:30:00Z,30.3288,-87.8293,1.879,7.84,1111122 
DISL,ioos:station:DISL:BSCA:1,2013-04-06T02:00:00Z,30.3288,-87.8293,1.887,8.12,1111122 
DISL,ioos:station:DISL:BSCA:1,2013-04-06T02:30:00Z,30.3288,-87.8293,1.89,8.26,1111122 
DISL,ioos:station:DISL:BSCA:1,2013-04-06T03:00:00Z,30.3288,-87.8293,1.897,8.65,1111122 
DISL,ioos:station:DISL:BSCA:1,2013-04-06T03:30:00Z,30.3288,-87.8293,1.893,9.05,1111122 
DISL,ioos:station:DISL:BSCA:1,2013-04-06T04:00:00Z,30.3288,-87.8293,1.881,8.87,1111122 
DISL,ioos:station:DISL:BSCA:1,2013-04-06T04:30:00Z,30.3288,-87.8293,1.865,8.79,1111122 
DISL,ioos:station:DISL:BSCA:1,2013-04-06T05:00:00Z,30.3288,-87.8293,1.853,8.42,1111122 
DISL,ioos:station:DISL:BSCA:1,2013-04-06T05:30:00Z,30.3288,-87.8293,1.83,8.88,1111122 
DISL,ioos:station:DISL:BSCA:1,2013-04-06T06:00:00Z,30.3288,-87.8293,1.802,8.88,1111122 
DISL,ioos:station:DISL:BSCA:1,2013-04-06T06:30:00Z,30.3288,-87.8293,1.774,9.32,1111122 
DISL,ioos:station:DISL:BSCA:1,2013-04-06T07:00:00Z,30.3288,-87.8293,1.746,9.4,1111122 
DISL,ioos:station:DISL:BSCA:1,2013-04-06T07:30:00Z,30.3288,-87.8293,1.731,8.55,1111122 
DISL,ioos:station:DISL:BSCA:1,2013-04-06T08:00:00Z,30.3288,-87.8293,1.713,9.91,1111122 
DISL,ioos:station:DISL:BSCA:1,2013-04-06T08:30:00Z,30.3288,-87.8293,1.701,9.93,1111122 
DISL,ioos:station:DISL:BSCA:1,2013-04-06T09:00:00Z,30.3288,-87.8293,1.682,9.65,1111122 
DISL,ioos:station:DISL:BSCA:1,2013-04-06T09:30:00Z,30.3288,-87.8293,1.669,9.5,1111122 
DISL,ioos:station:DISL:BSCA:1,2013-04-06T10:00:00Z,30.3288,-87.8293,1.658,9.49,1111122 
DISL,ioos:station:DISL:BSCA:1,2013-04-06T10:30:00Z,30.3288,-87.8293,1.649,9.88,1111122 
DISL,ioos:station:DISL:BSCA:1,2013-04-06T11:00:00Z,30.3288,-87.8293,1.649,10.07,1111122 
DISL,ioos:station:DISL:BSCA:1,2013-04-06T11:30:00Z,30.3288,-87.8293,1.648,9.84,1111122 
DISL,ioos:station:DISL:BSCA:1,2013-04-06T12:00:00Z,30.3288,-87.8293,1.648,9.76,1111122 
DISL,ioos:station:DISL:BSCA:1,2013-04-06T12:30:00Z,30.3288,-87.8293,1.654,9.75,1111122 
DISL,ioos:station:DISL:BSCA:1,2013-04-06T13:00:00Z,30.3288,-87.8293,1.663,9.86,1111122 
DISL,ioos:station:DISL:BSCA:1,2013-04-06T13:30:00Z,30.3288,-87.8293,1.675,9.74,1111122 
DISL,ioos:station:DISL:BSCA:1,2013-04-06T14:00:00Z,30.3288,-87.8293,1.711,9.69,1111122 
DISL,ioos:station:DISL:BSCA:1,2013-04-06T14:30:00Z,30.3288,-87.8293,1.727,9.64,1111122 
DISL,ioos:station:DISL:BSCA:1,2013-04-06T15:00:00Z,30.3288,-87.8293,1.768,9.62,1111122 